Location: Unspecified
(39.6481°N, 0.0000°E)
Time: 02:48:33
(UTC+00:00)

CZ-6A DEB - Visible Passes

Search period start: 04 April 2026 00:00
Search period end: 14 April 2026 00:00
Orbit: 793 x 928 km, 89.0° (Epoch: 28 March)

Date Brightness Start Highest point End Pass type
(mag) Time Alt. Az. Time Alt. Az. Time Alt. Az.
9 Apr ? 19:20:32 10° WNW 19:21:39 11° WNW 19:22:47 10° W visible
10 Apr ? 19:10:51 10° NW 19:12:50 12° WNW 19:14:49 10° W visible
11 Apr ? 04:54:10 10° SE 04:58:58 35° E 05:03:44 10° NNE visible
11 Apr ? 19:01:29 10° NW 19:04:01 13° WNW 19:06:34 10° WSW visible
12 Apr ? 04:45:26 10° SE 04:50:06 32° E 04:54:44 10° NNE visible
13 Apr ? 04:36:44 10° SE 04:41:15 29° E 04:45:43 10° NNE visible
